This demonstration page uses our WeatherBlox Daily Observations layout. Learn more.

41.55636, -103.73856

Hourly Observations for May 3, 2019

Temp ( °F °C ) Dew Point ( °F °C ) Humidity (%) Winds ( mph kmh ) Pressure ( in mb ) Visibility ( mi km ) Precip ( " mm )
12:53 am 00:53 Partly Cloudy 38 3.3 36 2.2 93 93 ESE 8 13 29.91 1013 10 16.09344 0 0
1:53 am 01:53 Mostly Cloudy 41 5 38 3.3 89 89 SE 9 15 29.91 1013 10 16.09344 0 0
2:53 am 02:53 Cloudy 42 5.6 39 3.9 89 89 E 7 11 29.91 1013 10 16.09344 0 0
3:53 am 03:53 Cloudy 40 4.4 38 3.3 93 93 E 8 13 29.91 1013 10 16.09344 0 0
4:53 am 04:53 Partly Cloudy 37 2.8 36 2.2 96 96 Calm 29.91 1013 10 16.09344 0 0
5:53 am 05:53 Cloudy 35 1.7 35 1.7 100 100 NW 6 9 29.94 1014 10 16.09344 0 0
6:53 am 06:53 Mostly Cloudy 41 5 38 3.3 89 89 NNW 7 11 29.94 1014 10 16.09344 0 0
7:53 am 07:53 Sunny 47 8.3 39 3.9 74 74 WNW 8 13 29.97 1015 10 16.09344 0 0
8:53 am 08:53 Sunny 52 11.1 36 2.2 55 55 NNW 14 22 29.97 1015 10 16.09344 0 0
9:53 am 09:53 Sunny 55 12.8 37 2.8 51 51 NNW 13 20 30 1016 10 16.09344 0 0
10:53 am 10:53 Sunny 56 13.3 36 2.2 47 47 NW 13 20 30 1016 10 16.09344 0 0
11:53 am 11:53 Sunny 59 15 36 2.2 42 42 WNW 12 19 30 1016 10 16.09344 0 0
12:53 pm 12:53 Mostly Sunny 58 14.4 34 1.1 41 41 NW 9 15 29.97 1015 10 16.09344 0 0
1:53 pm 13:53 Sunny 60 15.6 34 1.1 38 38 VRB 7 11 29.94 1014 10 16.09344 0 0
2:53 pm 14:53 Sunny 62 16.7 35 1.7 37 37 NW 9 15 29.91 1013 10 16.09344 0 0
3:53 pm 15:53 Sunny 63 17.2 33 0.6 33 33 NW 12 19 29.88 1012 10 16.09344 0 0
4:53 pm 16:53 Sunny 64 17.8 34 1.1 33 33 NE 5 7 29.88 1012 10 16.09344 0 0
5:53 pm 17:53 Sunny 65 18.3 35 1.7 33 33 W 6 9 29.88 1012 10 16.09344 0 0
6:53 pm 18:53 Sunny 62 16.7 33 0.6 34 34 S 5 7 29.88 1012 10 16.09344 0 0
7:53 pm 19:53 Sunny 56 13.3 34 1.1 44 44 ESE 3 6 29.88 1012 10 16.09344 0 0
8:53 pm 20:53 Clear 49 9.4 36 2.2 61 61 E 10 17 29.91 1013 10 16.09344 0 0
9:53 pm 21:53 Mostly Clear 47 8.3 36 2.2 66 66 NNE 9 15 29.91 1013 10 16.09344 0 0
10:53 pm 22:53 Clear 45 7.2 36 2.2 71 71 ENE 9 15 29.94 1014 10 16.09344 0 0
11:53 pm 23:53 Mostly Clear 43 6.1 35 1.7 74 74 E 7 11 29.94 1014 10 16.09344 0 0

Powered by AerisWeather